When you browse on this site, cookies collect data to enhance your experience and personalize the content and advertising you see.
Visit our Privacy Policy to learn more. By continuing to use the site, you agree to this use of cookies and data.
  • In Czech Republic
  • List of Countries
  • For 7 days
  • Water Temperature
  • Satellite Maps
  • Weather Map
  • Weather Widgets
  • user-avatar
    Login

    Hourly Weather Sacapa

    Today, 16 July, Tuesday

    Time Temperature Precipitation Wind Pressure Humidity
    00:00 +22°C° 0 mm 1 mps 697 mmHg 98%
    01:00 +22°C° 0.1 mm 1 mps 697 mmHg 98%
    02:00 +21°C° 0.1 mm 1 mps 696 mmHg 98%
    03:00 +19°C° 0.1 mm 0 mps 696 mmHg 98%
    04:00 +19°C° 0 mm 0 mps 696 mmHg 98%
    05:00 +19°C° 0 mm 0 mps 696 mmHg 98%
    06:00 +19°C° 0 mm 0 mps 696 mmHg 97%
    07:00 +21°C° 0 mm 0 mps 697 mmHg 92%
    08:00 +22°C° 0 mm 0 mps 697 mmHg 87%
    09:00 +24°C° 0 mm 0 mps 698 mmHg 82%
    10:00 +28°C° 0 mm 1 mps 698 mmHg 74%
    11:00 +29°C° 0 mm 1 mps 698 mmHg 67%
    12:00 +31°C° 0 mm 1 mps 698 mmHg 59%
    13:00 +30°C° 0.9 mm 1 mps 698 mmHg 63%
    14:00 +29°C° 0.9 mm 1 mps 697 mmHg 68%
    15:00 +29°C° 0.9 mm 2 mps 697 mmHg 73%
    16:00 +27°C° 2.1 mm 1 mps 696 mmHg 80%
    17:00 +25°C° 2.1 mm 1 mps 696 mmHg 88%
    18:00 +23°C° 2.1 mm 1 mps 696 mmHg 95%
    19:00 +23°C° 0.3 mm 1 mps 697 mmHg 96%
    20:00 +23°C° 0.3 mm 1 mps 697 mmHg 97%
    21:00 +22°C° 0.3 mm 1 mps 698 mmHg 97%
    22:00 +22°C° 0 mm 1 mps 698 mmHg 97%
    23:00 +20°C° 0 mm 0 mps 698 mmHg 98%

    Tomorrow, 17 July, Wednesday

    Time Temperature Precipitation Wind Pressure Humidity
    00:00 +19°C° 0 mm 0 mps 698 mmHg 98%
    01:00 +19°C° 0 mm 0 mps 697 mmHg 98%
    02:00 +19°C° 0 mm 0 mps 697 mmHg 98%
    03:00 +19°C° 0 mm 0 mps 696 mmHg 98%
    04:00 +19°C° 0 mm 0 mps 696 mmHg 98%
    05:00 +19°C° 0 mm 0 mps 696 mmHg 98%
    06:00 +19°C° 0 mm 0 mps 697 mmHg 98%
    07:00 +23°C° 0 mm 1 mps 697 mmHg 92%
    08:00 +24°C° 0 mm 1 mps 698 mmHg 86%
    09:00 +26°C° 0 mm 1 mps 698 mmHg 81%
    10:00 +28°C° 0.2 mm 1 mps 698 mmHg 73%
    11:00 +29°C° 0.2 mm 1 mps 698 mmHg 66%
    12:00 +30°C° 0.2 mm 1 mps 699 mmHg 59%
    13:00 +30°C° 0.5 mm 2 mps 698 mmHg 64%
    14:00 +29°C° 0.5 mm 2 mps 697 mmHg 68%
    15:00 +28°C° 0.5 mm 2 mps 697 mmHg 73%
    16:00 +27°C° 0.4 mm 2 mps 697 mmHg 78%
    17:00 +26°C° 0.4 mm 2 mps 697 mmHg 84%
    18:00 +24°C° 0.4 mm 1 mps 697 mmHg 90%
    19:00 +24°C° 0 mm 1 mps 697 mmHg 92%
    20:00 +23°C° 0 mm 1 mps 697 mmHg 95%
    21:00 +22°C° 0 mm 1 mps 697 mmHg 97%
    22:00 +20°C° 0 mm 0 mps 697 mmHg 97%
    23:00 +20°C° 0 mm 0 mps 697 mmHg 96%

    Day after tomorrow, 18 July, Thursday

    Time Temperature Precipitation Wind Pressure Humidity
    00:00 +20°C° 0 mm 0 mps 697 mmHg 95%
    01:00 +20°C° 0 mm 0 mps 697 mmHg 96%
    02:00 +19°C° 0 mm 0 mps 696 mmHg 96%
    03:00 +19°C° 0 mm 0 mps 696 mmHg 97%
    04:00 +19°C° 0 mm 0 mps 696 mmHg 97%
    05:00 +19°C° 0 mm 0 mps 696 mmHg 97%
    06:00 +19°C° 0 mm 0 mps 696 mmHg 97%
    07:00 +21°C° 0.2 mm 0 mps 697 mmHg 91%
    08:00 +23°C° 0.2 mm 0 mps 698 mmHg 85%
    09:00 +25°C° 0.2 mm 0 mps 698 mmHg 79%
    10:00 +27°C° 0.6 mm 1 mps 698 mmHg 79%
    11:00 +27°C° 0.6 mm 1 mps 698 mmHg 79%
    12:00 +28°C° 0.6 mm 2 mps 698 mmHg 79%
    13:00 +28°C° 0.9 mm 2 mps 697 mmHg 78%
    14:00 +28°C° 0.9 mm 2 mps 697 mmHg 78%
    15:00 +27°C° 0.9 mm 2 mps 696 mmHg 78%
    16:00 +26°C° 0.5 mm 2 mps 696 mmHg 82%
    17:00 +25°C° 0.5 mm 1 mps 696 mmHg 87%
    18:00 +24°C° 0.5 mm 1 mps 696 mmHg 92%
    19:00 +23°C° 0.1 mm 1 mps 696 mmHg 94%
    20:00 +22°C° 0.1 mm 1 mps 697 mmHg 96%
    21:00 +21°C° 0.1 mm 1 mps 697 mmHg 98%
    22:00 +21°C° 0 mm 1 mps 697 mmHg 98%
    23:00 +21°C° 0 mm 1 mps 697 mmHg 98%

    19 July, Friday

    Time Temperature Precipitation Wind Pressure Humidity
    00:00 +21°C° 0 mm 1 mps 697 mmHg 98%
    01:00 +19°C° 0 mm 0 mps 696 mmHg 98%
    02:00 +19°C° 0 mm 0 mps 696 mmHg 98%
    03:00 +18°C° 0 mm 0 mps 696 mmHg 98%
    04:00 +18°C° 0 mm 0 mps 696 mmHg 97%
    05:00 +18°C° 0 mm 0 mps 696 mmHg 97%
    06:00 +18°C° 0 mm 0 mps 696 mmHg 97%
    07:00 +20°C° 0 mm 0 mps 697 mmHg 90%
    08:00 +24°C° 0 mm 1 mps 698 mmHg 82%
    09:00 +26°C° 0 mm 1 mps 698 mmHg 75%
    10:00 +28°C° 0 mm 1 mps 698 mmHg 67%
    11:00 +29°C° 0 mm 1 mps 698 mmHg 59%
    12:00 +30°C° 0 mm 2 mps 698 mmHg 51%
    13:00 +30°C° 0 mm 2 mps 698 mmHg 51%
    14:00 +30°C° 0 mm 2 mps 697 mmHg 51%
    15:00 +30°C° 0 mm 2 mps 696 mmHg 51%
    16:00 +29°C° 0 mm 2 mps 696 mmHg 59%
    17:00 +27°C° 0 mm 2 mps 696 mmHg 68%
    18:00 +25°C° 0 mm 2 mps 696 mmHg 77%
    19:00 +24°C° 0 mm 1 mps 696 mmHg 83%
    20:00 +23°C° 0 mm 1 mps 697 mmHg 90%
    21:00 +21°C° 0 mm 1 mps 697 mmHg 97%
    22:00 +21°C° 0 mm 1 mps 697 mmHg 97%
    23:00 +21°C° 0 mm 1 mps 697 mmHg 97%

    20 July, Saturday

    Time Temperature Precipitation Wind Pressure Humidity
    00:00 +19°C° 0 mm 0 mps 697 mmHg 97%
    01:00 +19°C° 0 mm 0 mps 696 mmHg 97%
    02:00 +18°C° 0 mm 0 mps 696 mmHg 97%
    03:00 +18°C° 0 mm 0 mps 695 mmHg 97%
    04:00 +18°C° 0 mm 0 mps 696 mmHg 97%
    05:00 +18°C° 0 mm 0 mps 696 mmHg 97%
    06:00 +18°C° 0 mm 0 mps 696 mmHg 96%
    07:00 +20°C° 0 mm 0 mps 696 mmHg 90%
    08:00 +24°C° 0 mm 1 mps 697 mmHg 83%
    09:00 +26°C° 0 mm 1 mps 698 mmHg 77%
    10:00 +27°C° 0.1 mm 1 mps 697 mmHg 72%
    11:00 +29°C° 0.1 mm 1 mps 697 mmHg 67%
    12:00 +30°C° 0.1 mm 1 mps 697 mmHg 62%
    13:00 +30°C° 0.3 mm 2 mps 697 mmHg 64%
    14:00 +30°C° 0.3 mm 2 mps 696 mmHg 66%
    15:00 +29°C° 0.3 mm 2 mps 695 mmHg 69%
    16:00 +28°C° 0.8 mm 2 mps 695 mmHg 76%
    17:00 +26°C° 0.8 mm 2 mps 695 mmHg 83%
    18:00 +25°C° 0.8 mm 1 mps 695 mmHg 90%
    19:00 +24°C° 1.2 mm 1 mps 696 mmHg 92%
    20:00 +23°C° 1.2 mm 1 mps 696 mmHg 93%
    21:00 +23°C° 1.2 mm 1 mps 697 mmHg 95%
    22:00 +22°C° 1.4 mm 1 mps 697 mmHg 96%
    23:00 +22°C° 1.4 mm 1 mps 697 mmHg 97%

    21 July, Sunday

    Time Temperature Precipitation Wind Pressure Humidity
    00:00 +22°C° 1.4 mm 1 mps 697 mmHg 97%
    01:00 +22°C° 0.1 mm 1 mps 696 mmHg 97%
    02:00 +21°C° 0.1 mm 1 mps 695 mmHg 97%
    03:00 +19°C° 0.1 mm 0 mps 695 mmHg 97%
    04:00 +19°C° 0 mm 0 mps 695 mmHg 97%
    05:00 +19°C° 0 mm 0 mps 695 mmHg 97%
    06:00 +18°C° 0 mm 0 mps 695 mmHg 97%
    07:00 +23°C° 0 mm 1 mps 696 mmHg 89%
    08:00 +25°C° 0 mm 1 mps 697 mmHg 82%
    09:00 +27°C° 0 mm 1 mps 697 mmHg 74%
    10:00 +28°C° 0 mm 1 mps 697 mmHg 68%
    11:00 +30°C° 0 mm 1 mps 697 mmHg 62%
    12:00 +31°C° 0 mm 2 mps 697 mmHg 55%
    13:00 +31°C° 0.1 mm 2 mps 697 mmHg 56%
    14:00 +31°C° 0.1 mm 2 mps 696 mmHg 56%
    15:00 +31°C° 0.1 mm 2 mps 696 mmHg 56%
    16:00 +29°C° 0.8 mm 2 mps 696 mmHg 66%
    17:00 +27°C° 0.8 mm 2 mps 695 mmHg 77%
    18:00 +26°C° 0.8 mm 1 mps 695 mmHg 87%
    19:00 +24°C° 0.6 mm 1 mps 696 mmHg 91%
    20:00 +23°C° 0.6 mm 1 mps 696 mmHg 94%
    21:00 +22°C° 0.6 mm 1 mps 696 mmHg 97%
    22:00 +22°C° 0.7 mm 1 mps 696 mmHg 98%
    23:00 +22°C° 0.7 mm 1 mps 696 mmHg 98%
    Show more